Baton Rouge, LA

6:32 PM CDT on May 24, 2018 (GMT -0500)
Baton Rouge Metro-Ryan

Weather History for KBTR - September, 2013

Change the Weather History Date:

Saturday, September 7, 2013

  Actual Average Record
Temperature  
Mean Temperature 83 °F 81 °F  
Max Temperature 93 °F 91 °F 99 °F (1947)
Min Temperature 72 °F 71 °F 54 °F (2011)
Degree Days  
Heating Degree Days 0 0  
Month to date heating degree days 0 0  
Since 1 July heating degree days 0 0  
Cooling Degree Days 18 16  
Month to date cooling degree days 131 115  
Year to date cooling degree days 2099 2276  
Growing Degree Days 32 (Base 50)    
Moisture  
Dew Point 72 °F    
Average Humidity 73    
Maximum Humidity 100    
Minimum Humidity 46    
Precipitation  
Precipitation 0.11 in 0.16 in 4.21 in (1893)
Month to date precipitation 1.83 1.15  
Year to date precipitation 54.49 42.86  
Snow  
Snow 0.00 in - - ()
Month to date snowfall 0.0  
Since 1 July snowfall 0.0  
Since 1 September snowfall 0.0  
Snow Depth 0.00 in    
Sea Level Pressure  
Sea Level Pressure 30.01 in    
Wind  
Wind Speed 3 mph (NE)    
Max Wind Speed 23 mph    
Max Gust Speed 26 mph    
Visibility 9 miles    
Events Rain , Thunderstorm    
T = Trace of Precipitation, MM = Missing Value Source: NWS Daily Summary

Daily Weather History Graph

Daily Weather History Graph

Search for Another Location

Airport or City:

Astronomy

Sep. 07, 2013 Rise Set
Actual Time 6:44 AM CDT 7:19 PM CDT
Civil Twilight 6:20 AM CDT 7:44 PM CDT
Nautical Twilight 5:51 AM CDT 8:12 PM CDT
Astronomical Twilight 5:22 AM CDT 8:41 PM CDT
Moon 8:46 AM CDT (9/7) 8:33 PM CDT (9/7)
Length of Visible Light 13h 23m
Length of Day
12h 35m
Waxing Crescent, 5% of the Moon is Illuminated
Sep 7
Waxing Crescent
Sep 12
First Quarter
Sep 19
Full
Sep 26
Last Quarter
Oct 4
New

Hourly Weather History & Observations

Time (CDT) Temp. Heat Index Dew Point Humidity Pressure Visibility Wind Dir Wind Speed Gust Speed Precip Events Conditions
12:53 AM 73.9 °F - 73.0 °F 97% 30.01 in 7.0 mi Calm Calm - N/A   Clear
1:53 AM 73.9 °F - 72.0 °F 93% 30.01 in 8.0 mi Calm Calm - N/A   Clear
2:53 AM 73.9 °F - 72.0 °F 93% 30.00 in 8.0 mi Calm Calm - N/A   Clear
3:53 AM 73.0 °F - 72.0 °F 96% 29.99 in 9.0 mi Calm Calm - N/A   Clear
4:53 AM 73.0 °F - 71.1 °F 93% 30.00 in 9.0 mi Calm Calm - N/A   Clear
5:53 AM 72.0 °F - 70.0 °F 93% 30.01 in 9.0 mi Calm Calm - N/A   Clear
6:53 AM 72.0 °F - 70.0 °F 93% 30.03 in 8.0 mi NE 3.5 mph - N/A   Clear
7:53 AM 73.9 °F - 71.1 °F 91% 30.04 in 10.0 mi NNE 4.6 mph - N/A   Clear
8:53 AM 79.0 °F - 73.0 °F 82% 30.05 in 10.0 mi ENE 4.6 mph - N/A   Clear
9:53 AM 82.9 °F 90.8 °F 75.9 °F 79% 30.06 in 10.0 mi NNE 3.5 mph - N/A   Clear
10:53 AM 87.1 °F 96.3 °F 75.0 °F 67% 30.06 in 10.0 mi NE 4.6 mph - N/A   Scattered Clouds
11:53 AM 87.1 °F 94.5 °F 73.0 °F 63% 30.05 in 10.0 mi Calm Calm - N/A   Scattered Clouds
12:53 PM 90.0 °F 96.4 °F 71.1 °F 54% 30.03 in 10.0 mi Calm Calm - N/A   Mostly Cloudy
1:53 PM 91.0 °F 97.6 °F 71.1 °F 52% 30.00 in 10.0 mi Variable 4.6 mph - N/A   Scattered Clouds
2:53 PM 93.0 °F 97.9 °F 69.1 °F 45% 29.97 in 10.0 mi Variable 3.5 mph - N/A   Scattered Clouds
3:53 PM 93.0 °F 100.1 °F 71.1 °F 49% 29.96 in 10.0 mi NE 8.1 mph - N/A   Scattered Clouds
4:53 PM 82.0 °F 86.7 °F 72.0 °F 71% 29.96 in 7.0 mi NE 20.7 mph 26.5 mph 0.00 in Rain Light Rain
5:01 PM 75.2 °F - 66.2 °F 73% 29.97 in 3.0 mi NNE 17.3 mph 26.5 mph 0.03 in Rain , Thunderstorm Heavy Thunderstorms and Rain
5:53 PM 79.0 °F - 73.0 °F 82% 30.00 in 10.0 mi South 10.4 mph - 0.11 in Rain Light Rain
6:53 PM 78.1 °F - 71.1 °F 79% 29.99 in 10.0 mi South 6.9 mph - N/A   Clear
7:53 PM 75.9 °F - 72.0 °F 87% 29.99 in 10.0 mi West 4.6 mph - N/A   Unknown
8:53 PM 75.9 °F - 71.1 °F 85% 30.00 in 10.0 mi Calm Calm - N/A   Clear
9:53 PM 73.9 °F - 72.0 °F 93% 30.01 in 8.0 mi Calm Calm - N/A   Clear
10:53 PM 73.0 °F - 72.0 °F 96% 30.01 in 7.0 mi Calm Calm - N/A   Clear
11:53 PM 73.0 °F - 72.0 °F 96% 30.01 in 7.0 mi Calm Calm - N/A   Clear